STARLINK-1555 (46032 NORAD) Tracking and Keplerian Element Data

This shows tracking and keplerian element data for the satellite.

Feedback or suggestion? Click here.




ElementValue
Catalog46032
NameSTARLINK-1555
Epoch Orbit1874
Epoch Day339.07827233
Epoch Year2020
RAAN113.0658
Inclination53.0016
Eccentricity0.0001617
Argument of Perigee92.4601
Mean Anonmoly267.6573
Mean Motion15.05585876
Decay Rate1.397E-05
L11 46032U 20055F 20339.07827233 .00001397 00000-0 11503-3 0 9999
L22 46032 53.0016 113.0658 0001617 92.4601 267.6573 15.05585876 18749

Live tracking and technical data element details for STARLINK-1555 (NORAD 46032). STARLINK-1555 can be tracked NOW for your location showing map with azimuth and elevation plus other details from your city location.

Track the satellite on the map from your city or location and see movement details for azimuth, elevation, latitude, longitude, range, height, and movement on the map or in text.







IsCatalogInMostPopularTable: catalog: 46032, numindb: 25
Update: records affected: 1



GetName: 46032 STARLINK-1555

Hit Count: updated at: Sat, 05 Dec 2020 05:01:44 GMT